Tracking 19564 objects as of 18-Mar-2019
HD Live streaming from Space Station
objects crossing your sky now

FAST

Track FAST now!
10-day predictions
FAST is classified as:


NORAD ID: 24285
Int'l Code: 1996-049A
Perigee: 353.2 km
Apogee: 3,449.0 km
Inclination: 83.0 °
Period: 124.8 minutes
Semi major axis: 8272 km
RCS: 1.3393 m2 (large)
Launch date: August 21, 1996
Source: United States (US)
Launch site: AIR FORCE WESTERN TEST RANGE (AFWTR)

Designed to study Earth's aurora.
aabbcc
Your satellite tracking list
Your tracking list is empty




NASA's NSSDC Master Catalog

Two Line Element Set (TLE):
1 24285U 96049A   19076.91750007 +.00001976 +00000-0 +15629-3 0  9990
2 24285 082.9650 023.2708 1871204 070.1649 309.0804 11.53928087924547
Source of the keplerian elements: AFSPC